sat.trackr.live / text

‹ back to catalog

STARLINK-4252

NORAD 53057 · 2022-077Q

PAYLOAD ACTIVE UNKNOWN

§ Identity

Operator
Country
US
Launch date
2022-07-11
Launch site
AFWTR
Launch vehicle
Mass (kg)
RCS (m²)

Purposes: comms

External: N2YO · Heavens-Above · Gunter

§ Orbital elements

Epoch: 2026-09-19T22:15:10.345248Z

Period
93.91 min
Inclination
97.2847°
Eccentricity
0.0001322
Mean motion
15.33431188 rev/d
Perigee alt
464.7 km
Apogee alt
466.5 km
Semi-major
6,843.7 km
B*
6.7116e-6
RAAN
78.6759°
Arg perigee
92.8079°
Mean anomaly
267.3315°
Rev number
23,026

§ Raw data

STARLINK-42521 53057U 22077Q   26262.92720307  .00000141  00000+0  67116-5 0  99972 53057  97.2847  78.6759 0001322  92.8079 267.3315 15.33431188230261

JSON: /api/v1/satellites/53057 · /tle

For live sub-satellite position, see the globe view (requires WebGL).

§ Visibility from observer

Set your observer location to see the next 7 days of passes ≥ 10°. The values pass through the URL so the page stays shareable.

No JS? Fill the form by hand. The geolocation button needs JavaScript.